TIME,DELAY(SENSOR),PRES,OXYGEN,RAWTEMP,T(OPTODE),TCPHASE,FLUOR,BETA(BETA700),BETA(BETA412),BETA(BETA440),CDOM,C(CSC),ED(ED412.20),ED(ED444.00),ED(ED489.60),ED(ED554.30),LU(LU412.10),LU(LU443.90),LU(LU489.70),LU(LU554.70),COMP,TILTX,TILTY,CHECK
1355108821,5811,904.3800048828125000,32.5115509033203100,559.0518798828125000,4.5152759552001950,56.6688194274902340,55,99,99,77,82,15535,0,0,0,0,2147126235,2147772982,2147573513,2147569042,2809,2,13,19839
1355112417,5810,970.1099853515625000,39.3221092224121100,566.5496826171875000,4.2827301025390625,55.6816787719726560,56,98,100,77,83,15536,0,0,0,0,2147125028,2147770240,2147572361,2147566866,3100,2,13,36450
1355116017,5808,978.3800048828125000,41.0859298706054700,568.8284301757812000,4.2119622230529785,55.4397506713867200,55,100,100,77,81,15537,0,0,0,0,2147123638,2147770422,2147574409,2147564662,556,3,13,23247
1355119617,5810,982.1900024414062000,41.0536994934082000,569.4619750976562000,4.1922798156738280,55.4545097351074200,55,99,101,78,83,15534,0,0,0,0,2147123501,2147776356,2147577508,2147565888,3374,3,13,33910
1355123217,5814,989.3800048828125000,41.1252899169921900,570.2974243164062000,4.1663208007812500,55.4553298950195300,54,98,101,78,83,15536,0,0,0,0,2147121170,2147771885,2147570322,2147567844,91,3,13,43132
1355126817,5810,985.3900146484375000,41.0878791809082000,570.4202880859375000,4.1624979972839355,55.4580802917480500,55,98,100,77,82,15539,0,0,0,0,2147125275,2147776329,2147568923,2147569170,161,3,13,64515
1355130417,5810,987.8400268554688000,41.4777488708496100,571.2208251953125000,4.1376171112060550,55.4085083007812500,54,97,100,78,81,15536,0,0,0,0,2147124132,2147773330,2147574445,2147566144,3586,3,13,22092
1355134017,5809,993.9699707031250000,41.0545997619628900,570.9511718750000000,4.1459999084472660,55.4713096618652340,55,98,101,78,83,15539,0,0,0,0,2147125869,2147773696,2147571529,2147566619,149,2,13,56892
1355137617,5809,998.8099975585938000,40.4941215515136700,570.2285156250000000,4.1684589385986330,55.5461082458496100,55,98,101,77,83,15536,0,0,0,0,2147126217,2147775689,2147572672,2147569179,183,3,13,16988
1355141217,5807,1001.7500000000000000,40.0597991943359400,569.5709228515625000,4.1888937950134280,55.6009101867675800,55,97,101,77,82,15536,0,0,0,0,2147126482,2147772754,2147570276,2147571108,277,3,13,16341
1355144817,5812,996.5000000000000000,40.1177597045898440,570.2598266601562000,4.1674880981445310,55.5986404418945300,55,98,100,77,82,15529,0,0,0,0,2147124708,2147775122,2147571968,2147571008,190,3,13,32245
1355148417,5808,998.4699707031250000,40.3339309692382800,570.7725830078125000,4.1515479087829590,55.5709190368652340,55,98,100,76,83,15525,0,0,0,0,2147125522,2147772534,2147578715,2147568932,88,3,13,63693
1355152017,5812,996.3800048828125000,40.1818008422851560,570.9282836914062000,4.1467089653015140,55.5956993103027340,55,99,101,80,83,15464,0,0,0,0,2147124224,2147775771,2147573257,2147568091,16,3,13,46197
1355155617,5809,1001.8800048828125000,40.9319801330566400,571.3383178710938000,4.1339659690856930,55.4891090393066400,55,98,101,78,81,15461,0,0,0,0,2147122697,2147775341,2147569462,2147570322,3559,3,13,18467
1355159217,5810,996.2500000000000000,40.4771804809570300,571.1594238281250000,4.1395258903503420,55.5542106628418000,55,99,101,78,82,15458,0,0,0,0,2147122514,2147775387,2147574765,2147567780,123,3,13,56422
1355162817,5810,1000.7100219726562000,40.6232299804687500,570.8748779296875000,4.1483688354492190,55.5337791442871100,55,98,100,78,83,15504,0,0,0,0,2147123666,2147774153,2147572269,2147566674,436,2,13,20413
1355166417,5808,998.6199951171875000,40.7881813049316400,571.3618774414062000,4.1332302093505860,55.5165596008300800,55,99,99,78,83,15502,0,0,0,0,2147124324,2147775168,2147573220,2147569810,336,2,13,64752
1355170017,5809,1001.6400146484375000,40.8383407592773440,571.2313842773438000,4.1372871398925780,55.5035896301269500,55,99,105,77,81,15498,0,0,0,0,2147124288,2147775241,2147574509,2147570770,162,3,13,14842
1355173617,5808,1002.9899902343750000,40.4802207946777340,570.9421997070312000,4.1462779045104980,55.5559806823730500,54,100,100,77,82,15492,0,0,0,0,2147125293,2147773869,2147576109,2147573339,3396,2,13,29258
1355177217,5809,1002.5999755859375000,40.1212387084960940,571.1032104492188000,4.1412730216979980,55.6069107055664060,55,97,100,77,82,15495,0,0,0,0,2147121846,2147768292,2147575241,2147568649,156,3,13,9956
1355180817,5808,1003.9000244140625000,40.4936981201171900,571.3035278320312000,4.1350460052490230,55.5582504272460940,55,99,100,78,82,15497,0,0,0,0,2147122404,2147770715,2147571675,2147569901,119,3,13,63328
1355184417,5808,997.3300170898438000,41.3639488220214840,571.5159301757812000,4.1284451484680180,55.4315910339355500,55,99,101,78,82,15498,0,0,0,0,2147124672,2147771099,2147572809,2147569984,594,3,13,32642
1355188017,5807,1000.4199829101562000,41.6320495605468750,571.7371215820312000,4.1215667724609375,55.3948516845703100,54,97,102,78,82,15495,0,0,0,0,2147123008,2147771492,2147572580,2147571200,412,3,13,60633
1355191617,5812,996.3800048828125000,41.9127998352050800,572.3666992187500000,4.1019921302795410,55.3566093444824200,54,99,99,78,82,15500,0,0,0,0,2147125120,2147778468,2147577718,2147567798,36,3,13,38131
1355195217,5810,997.9199829101562000,41.8652000427246100,572.3837890625000000,4.1014599800109860,55.3628807067871100,54,99,100,78,84,15492,0,0,0,0,2147122386,2147772982,2147571812,2147570541,84,2,13,58119
1355198817,5807,997.4299926757812000,41.6160507202148440,572.5026855468750000,4.0977630615234375,55.4004402160644500,55,97,99,78,83,15494,0,0,0,0,2147128064,2147771995,2147573531,2147567186,115,2,13,56568
1355202417,5810,1008.9199829101562000,42.2009391784668000,572.2307739257812000,4.1062159538269040,55.3140983581543000,55,98,101,78,82,15495,0,0,0,0,2147125504,2147776813,2147573970,2147570285,3117,2,13,47468
1355206017,5811,1000.3800048828125000,41.0508918762207000,571.5170288085938000,4.1284098625183105,55.4740295410156250,55,98,101,77,82,15490,0,0,0,0,2147125385,2147770642,2147572790,2147569974,68,3,13,35278
1355209617,5810,998.6400146484375000,41.5091896057128900,572.2581787109375000,4.1053662300109860,55.4132003784179700,54,99,99,78,83,15494,0,0,0,0,2147123931,2147771648,2147571026,2147566573,3453,3,13,25080
1355213217,5807,1002.4400024414062000,41.7133903503418000,572.1475830078125000,4.1088027954101560,55.3884086608886700,55,98,100,76,82,15494,0,0,0,0,2147123300,2147771099,2147572745,2147568548,3467,3,13,37890
1355216817,5807,1009.7299804687500000,41.5511283874511700,571.4373168945312000,4.1308898925781250,55.4033889770507800,55,98,101,77,82,15493,0,0,0,0,2147125220,2147772571,2147573293,2147564571,263,3,13,29815
1355220417,5812,1005.7199707031250000,40.7402114868164060,571.3887939453125000,4.1323947906494140,55.5218696594238300,54,99,99,77,82,15494,0,0,0,0,2147123382,2147770770,2147575561,2147569600,100,3,13,13059
1355224017,5809,1004.0499877929688000,40.5967597961425800,571.5360107421875000,4.1278190612792970,55.5409393310546900,55,99,99,77,83,15492,0,0,0,0,2147122596,2147774656,2147575040,2147568996,56,3,13,47210
1355227617,5810,1007.2800292968750000,41.3698196411132800,571.4794921875000000,4.1295762062072750,55.4293289184570300,55,98,101,78,82,15490,0,0,0,0,2147124489,2147780342,2147576182,2147567552,51,3,13,35427
1355231217,5808,1008.0300292968750000,40.3495407104492200,571.4235229492188000,4.1313152313232420,55.5763893127441400,55,97,102,77,83,15489,0,0,0,0,2147128210,2147774665,2147570770,2147572160,295,3,13,59767
1355234817,5810,1007.5900268554688000,40.5692787170410160,571.3333129882812000,4.1341209411621090,55.5467910766601560,54,96,100,78,83,15491,0,0,0,0,2147125540,2147769974,2147575131,2147570221,3576,2,13,7884
1355238417,5812,1012.3099975585938000,41.1180305480957000,571.1007080078125000,4.1413521766662600,55.4635314941406250,55,98,100,77,82,15490,0,0,0,0,2147121846,2147773366,2147570486,2147568658,78,3,13,4794
1355242017,5809,1015.4699707031250000,39.8642692565918000,570.4165039062500000,4.1626172065734860,55.6360893249511700,55,99,99,78,82,15484,0,0,0,0,2147126198,2147775899,2147574976,2147569197,76,3,13,30584
1355245617,5807,1009.2100219726562000,39.2537803649902340,570.5501098632812000,4.1584639549255370,55.7349700927734400,54,100,101,78,81,15486,0,0,0,0,2147127341,2147773714,2147575040,2147571291,326,3,13,12128
1355249217,5810,1013.4500122070312000,41.0538597106933600,571.1301269531250000,4.1404380798339840,55.4721908569335940,55,98,101,78,82,15474,0,0,0,0,2147124068,2147773321,2147574162,2147568978,3334,3,13,8718
1355252817,5809,1008.2500000000000000,40.7291603088378900,571.0767211914062000,4.1420960426330570,55.5194587707519500,54,100,101,78,82,15480,0,0,0,0,2147124928,2147776585,2147572946,2147569737,211,3,13,19257
1355253356,5810,1005.5399780273438000,40.5667800903320300,571.0328979492188000,4.1434588432312010,55.5430793762207000,55,100,100,79,82,15477,0,0,0,0,2147121088,2147773366,2147579145,2147570934,3487,2,13,41405
